Theta_e
353 352 354 355 355 355 353 355 356 354 355 359 358 359 358 356 355 357 357 352 353 356 357 354 357 358 356 352 349 350 349 349 351 349 348 348 352 353 354 355 357 356 351
353 354 354 354 354 353 354 353 355 355 356 357 359 360 359 358 359 359 359 354 356 357 357 358 358 355 356 356 356 354 351 352 353 353 351 350 351 352 354 357 358 356 354
353 354 353 353 353 352 352 353 353 353 355 354 357 358 359 359 359 360 360 358 357 355 356 355 358 356 356 355 355 353 350 350 352 352 351 350 350 351 352 354 356 356 353
352 354 354 352 352 352 352 353 354 354 355 355 355 357 358 359 359 359 359 360 359 357 356 359 359 356 356 356 355 355 354 355 354 353 353 351 349 349 350 351 355 353 353
351 353 354 353 353 353 353 354 354 355 355 355 355 356 358 358 358 358 359 359 359 353 354 358 356 355 356 354 352 352 353 352 350 350 349 348 347 348 349 348 350 349 349
350 352 354 354 354 355 356 356 358 358 358 357 356 356 357 356 354 354 355 357 358 356 353 353 354 354 354 353 351 352 350 353 352 352 351 351 354 353 351 351 350 350 352
351 352 354 354 355 355 355 356 357 358 359 359 359 358 356 356 354 350 354 354 353 353 354 355 354 352 350 349 351 354 353 352 351 352 353 354 354 353 354 355 353 353 354
349 352 353 353 354 353 354 355 357 356 358 358 358 358 358 356 355 354 353 352 352 353 353 354 355 353 353 351 354 353 350 349 347 347 349 352 352 351 351 351 353 354 353
351 352 352 352 354 353 352 354 355 356 357 357 358 358 357 356 356 356 352 351 351 352 353 355 356 354 354 354 352 349 348 346 345 345 345 344 343 342 342 344 347 349 351
351 353 354 353 350 351 354 355 355 355 356 356 357 358 356 356 356 355 353 351 349 351 352 353 355 355 355 352 343 347 346 347 346 345 346 346 345 346 345 347 349 350 349
354 356 354 354 354 355 354 353 354 355 355 356 356 357 357 355 355 352 350 351 351 350 352 354 351 348 344 339 338 345 346 346 342 345 345 345 346 347 347 346 346 349 346
349 350 346 347 348 350 350 349 349 350 351 351 352 352 353 349 349 342 339 338 342 343 345 346 346 343 340 340 340 340 340 338 341 345 346 346 346 346 345 344 342 344 344
339 338 338 337 341 344 342 339 340 342 341 340 341 338 337 343 340 340 336 336 338 340 341 343 343 341 339 339 338 339 340 341 344 344 345 342 339 341 341 342 340 342 343
333 332 334 332 334 337 338 337 340 340 340 338 339 335 337 341 341 340 337 336 336 338 339 339 337 337 337 340 338 339 340 341 342 343 339 338 338 338 338 339 340 339 341
336 339 338 338 333 335 333 335 336 339 340 340 340 338 340 339 340 341 340 340 341 340 339 336 334 333 335 336 336 336 335 338 339 337 337 337 336 335 336 337 339 340 342
333 330 333 333 334 333 332 331 335 337 339 339 338 339 339 338 338 336 337 336 337 337 334 339 337 337 336 336 336 336 336 333 335 335 335 334 334 334 333 334 335 337 338
323 325 327 328 326 329 330 332 332 326 327 330 334 336 336 335 336 336 335 334 334 335 335 338 337 336 333 331 331 331 332 330 328 329 330 329 329 330 330 331 332 333 334
316 315 314 316 319 325 328 327 326 328 330 331 326 326 327 329 331 332 331 330 330 331 333 332 331 330 329 328 327 327 329 329 328 326 326 324 324 326 327 328 329 329 329
318 318 317 316 317 318 318 316 316 319 319 322 326 327 326 325 326 326 327 330 331 330 330 330 329 326 324 324 325 325 326 326 321 319 317 315 315 317 320 320 322 321 321
313 315 318 319 319 319 320 320 320 319 318 318 319 316 317 323 329 329 327 328 328 329 328 329 329 327 325 324 323 323 323 316 315 315 314 313 313 315 317 317 317 316 316
310 310 310 311 311 312 313 315 317 319 320 320 319 315 313 318 321 323 325 328 329 328 327 326 327 327 325 323 322 321 319 316 315 314 314 313 312 314 314 314 314 314 314
310 310 310 311 312 312 313 313 313 312 312 313 313 314 313 317 318 319 321 323 325 326 327 326 325 324 324 322 321 320 318 316 315 314 314 313 312 312 313 313 313 313 313
309 309 310 310 310 310 311 311 311 312 313 313 314 313 313 313 313 314 316 317 319 322 324 324 325 323 322 323 322 320 318 316 315 314 314 313 313 313 313 313 313 312 312
309 309 309 310 309 310 310 310 310 310 310 311 311 311 312 313 314 314 314 314 315 316 318 319 321 323 322 322 323 323 320 318 316 315 314 314 313 312 312 313 313 312 311
310 310 310 310 310 310 310 310 310 310 310 310 310 310 310 310 311 312 313 314 314 314 314 315 315 317 318 321 323 324 323 320 317 316 314 313 313 313 313 313 313 313 312
310 310 310 311 311 311 311 311 311 311 311 310 310 310 310 311 311 310 310 310 311 311 312 312 313 313 313 314 315 317 318 318 319 318 315 313 314 314 313 313 313 313 313
Wind_Speed
37 36 34 33 31 31 32 29 27 25 22 21 21 21 21 20 20 21 21 21 20 18 17 17 16 14 15 15 14 13 15 16 17 21 21 21 20 21 20 21 21 20 20
34 34 37 34 32 31 32 32 29 28 27 24 22 21 21 21 21 21 21 20 21 21 20 18 18 16 16 16 14 14 16 16 19 20 22 23 22 20 19 21 21 21 20
33 35 35 35 34 34 33 32 32 30 30 28 26 24 23 23 23 22 23 22 21 20 19 21 20 17 17 15 12 15 17 17 14 19 22 23 24 24 22 21 19 21 20
33 35 35 37 37 36 35 33 33 32 31 30 29 26 25 24 23 22 23 22 22 20 20 22 20 18 18 16 15 16 16 16 18 19 21 23 25 23 23 22 19 17 23
30 32 33 34 34 34 32 34 33 32 33 31 30 29 27 26 26 23 23 23 23 22 21 17 19 20 19 18 18 19 18 19 20 21 22 23 25 20 21 25 25 25 21
28 31 30 29 29 30 31 32 31 33 34 32 32 31 30 29 28 27 24 24 24 20 20 20 21 21 21 22 21 18 19 17 20 21 24 24 24 25 24 24 25 24 19
26 28 28 28 28 29 29 29 30 31 31 32 33 32 32 30 29 29 24 24 24 24 24 23 22 23 21 21 21 18 19 17 19 21 24 26 25 25 22 22 23 21 23
26 27 28 26 25 25 24 27 29 30 30 31 31 31 31 32 31 29 29 26 25 26 27 27 26 25 25 24 20 19 17 17 18 19 20 21 22 21 20 19 21 22 23
30 25 25 26 25 28 27 27 30 30 29 30 28 28 28 29 30 30 29 26 28 30 30 29 28 27 25 24 18 14 13 15 13 14 18 22 23 21 21 18 21 18 17
24 22 23 25 29 24 23 23 29 31 29 28 26 24 24 25 25 26 29 26 27 27 27 27 25 23 22 19 16 12 11 10 6 9 14 15 15 15 17 16 14 13 11
5 13 17 17 18 18 21 24 25 23 21 22 20 18 19 16 16 15 15 10 5 5 7 9 10 15 16 16 13 11 10 9 9 10 11 12 10 7 8 8 9 12 13
8 11 12 12 14 15 26 16 9 15 16 13 15 14 15 13 12 8 8 9 9 8 9 11 11 10 14 15 14 16 15 12 12 10 11 9 8 8 9 9 10 10 10
15 14 12 8 10 15 23 19 13 4 8 3 2 2 6 7 7 8 7 8 9 9 9 11 13 15 16 14 15 16 10 9 12 12 9 8 8 10 10 10 9 7 10
13 13 10 9 9 7 11 11 10 10 7 13 10 10 6 9 7 6 8 11 12 12 11 14 13 13 11 11 11 7 5 8 7 6 4 6 6 7 7 8 7 9 9
12 8 7 7 8 7 4 1 4 5 8 12 9 15 13 8 8 10 6 7 8 7 8 8 8 9 9 9 7 5 5 5 5 3 3 3 4 4 4 5 5 5 4
18 15 15 15 11 5 6 8 5 3 3 6 7 3 7 8 3 2 11 12 9 13 9 9 9 10 12 10 8 7 6 3 2 2 4 4 5 5 6 5 5 5 7
22 17 17 17 15 14 12 13 11 12 11 12 13 7 2 8 7 4 6 8 7 9 10 10 11 8 6 6 5 4 2 2 2 2 4 4 4 6 5 7 8 7 6
27 23 21 18 12 11 10 12 10 8 7 8 10 8 6 9 11 11 8 5 5 6 4 3 4 5 4 3 2 1 2 3 3 3 3 3 4 5 6 6 7 6 7
19 16 17 14 12 12 12 16 16 11 12 9 7 6 2 2 1 3 5 5 6 5 6 5 5 5 5 3 3 2 3 3 3 2 2 2 3 4 4 6 7 5 8
18 14 12 11 10 9 8 8 8 9 10 9 7 7 5 3 5 5 7 8 9 8 7 7 7 5 5 5 5 4 4 3 3 3 2 3 3 3 3 4 5 6 7
15 16 15 12 10 8 8 8 8 7 6 5 4 6 12 5 5 5 7 6 8 9 9 8 7 7 6 6 6 5 5 5 4 3 2 2 2 3 4 4 5 6 7
15 15 15 16 15 15 12 11 9 8 8 8 8 6 10 7 8 7 7 8 9 9 11 10 11 11 9 9 8 8 8 8 7 6 5 5 4 3 3 4 5 6 8
10 9 10 11 10 8 10 10 10 10 10 9 8 9 9 8 9 9 9 8 8 10 11 11 12 13 13 11 11 13 12 11 10 10 9 8 6 5 4 5 6 7 9
8 8 8 8 9 9 11 9 9 5 6 7 7 7 8 9 10 10 10 9 10 9 9 9 12 14 15 15 13 15 16 15 12 12 12 10 9 7 9 8 7 5 8
4 5 5 7 9 10 10 10 10 10 10 10 9 9 9 9 9 11 12 12 12 13 13 12 12 10 10 12 17 19 15 17 18 14 13 15 14 13 14 13 11 10 8
6 5 7 7 8 8 9 11 13 13 12 12 13 13 13 13 12 12 11 12 14 14 15 16 16 16 16 16 15 12 14 17 19 22 21 18 18 18 17 17 17 15 15
Wind_Direction
211 204 207 209 212 214 216 216 217 219 219 222 219 219 221 222 224 230 237 243 240 244 247 250 253 256 260 261 258 258 267 273 279 289 299 302 311 300 303 302 305 304 304
210 206 205 210 210 213 216 218 219 221 221 222 222 221 222 225 227 230 232 237 236 244 247 248 250 256 253 254 262 268 276 288 286 289 297 299 301 307 302 299 299 302 303
208 208 212 211 212 216 218 220 220 222 222 222 224 225 227 229 229 232 233 235 238 243 252 246 248 250 256 262 261 266 276 282 281 280 293 294 297 299 298 293 297 301 298
212 212 212 213 213 215 217 216 218 219 219 222 224 226 229 230 230 234 232 234 238 244 254 252 245 246 257 260 260 265 274 280 286 284 286 290 290 294 293 282 279 287 296
215 216 215 217 217 215 215 217 216 218 223 225 225 227 229 230 232 232 234 234 238 245 252 252 246 249 253 257 270 275 280 279 284 285 284 284 284 285 292 297 296 290 302
225 219 219 215 217 219 217 215 214 214 216 219 223 226 228 233 236 234 235 236 238 243 251 253 254 255 256 262 262 272 274 275 279 282 285 286 287 283 283 287 296 299 299
231 228 220 215 215 217 221 223 220 218 219 221 224 225 228 230 236 242 241 241 249 251 255 257 257 257 256 260 263 271 282 286 277 276 278 279 286 285 288 284 278 281 283
253 234 219 215 214 215 221 226 224 223 222 223 226 228 230 233 235 236 238 241 248 252 253 255 254 258 264 260 259 264 272 277 279 279 280 281 286 292 288 287 287 284 283
216 223 225 211 203 201 210 224 229 225 224 224 226 227 228 232 236 237 237 239 247 249 252 250 249 252 255 253 239 249 264 276 288 287 291 289 290 290 286 280 274 276 278
228 222 223 219 215 214 210 215 230 227 225 224 222 221 225 230 234 235 237 242 248 251 253 254 252 243 238 237 231 234 253 272 276 301 304 297 296 294 294 276 268 269 287
206 216 217 224 233 225 211 220 234 225 226 223 218 217 218 217 215 233 231 208 240 305 300 268 220 214 216 218 223 241 252 253 282 299 305 306 316 310 298 312 291 270 263
196 174 145 159 172 190 217 184 137 178 196 187 198 203 182 169 197 183 213 225 234 249 250 249 233 230 233 244 250 247 246 252 270 282 291 293 309 320 315 312 312 306 278
117 108 107 98 118 138 132 127 149 163 141 107 97 278 291 255 203 208 219 237 233 220 248 242 225 234 247 254 247 239 231 234 248 261 279 296 307 312 318 318 325 313 320
122 123 114 111 86 58 110 149 175 175 177 205 194 245 261 232 192 198 211 234 244 250 238 247 247 235 229 238 228 193 206 237 245 260 270 283 305 313 325 329 333 340 330
146 129 98 144 132 116 90 128 187 214 213 225 216 216 210 211 236 250 246 227 221 238 232 235 230 193 184 195 205 189 206 216 231 254 263 286 305 327 328 338 333 331 319
95 91 100 104 122 148 176 100 84 91 204 217 166 147 236 241 249 209 230 226 245 249 231 211 182 188 196 202 190 185 183 177 219 274 279 300 309 314 322 320 328 324 319
91 90 93 93 89 92 85 106 99 74 66 56 48 51 270 234 220 193 162 159 170 175 230 201 189 187 194 200 174 163 159 178 226 248 274 283 297 306 311 313 321 317 316
84 77 75 73 70 74 75 84 89 81 67 45 68 80 87 120 137 144 157 167 187 220 240 206 193 183 195 198 150 149 180 207 222 248 269 298 306 315 317 319 313 319 322
72 82 76 69 64 62 68 74 75 78 74 67 59 68 52 68 134 167 188 233 228 221 210 208 217 199 187 173 173 198 233 193 186 227 254 283 296 299 316 315 316 317 320
61 57 68 71 62 57 52 49 55 59 67 65 55 42 18 308 230 224 227 240 244 243 220 225 205 219 210 200 193 199 201 212 218 212 225 254 276 287 307 302 307 318 324
49 50 47 49 47 44 37 28 19 6 20 38 47 33 15 348 312 286 292 264 258 267 258 268 252 208 229 217 207 210 218 224 215 224 230 254 283 301 300 304 314 324 320
53 50 50 49 43 38 34 31 24 16 9 358 346 340 356 333 330 333 317 289 277 265 263 265 262 261 239 235 229 222 217 214 200 201 209 218 226 252 294 318 332 335 332
68 63 65 63 54 54 43 39 39 25 14 3 352 343 333 326 316 311 311 306 303 282 272 263 262 262 259 239 239 240 239 227 219 208 208 219 230 250 279 307 323 332 338
50 39 41 42 45 18 30 8 11 14 355 354 355 354 336 322 308 299 294 303 298 297 298 283 268 268 273 267 241 241 247 246 232 224 222 228 239 230 259 272 285 319 310
37 22 23 24 12 7 357 351 343 335 332 334 330 331 326 325 322 321 313 301 298 296 290 290 287 286 282 275 272 270 257 235 229 235 229 238 241 246 250 264 271 278 281
335 348 343 342 344 342 335 328 325 322 320 319 317 313 314 313 311 308 307 305 302 301 302 294 290 290 291 287 279 273 275 281 261 253 239 240 254 255 257 259 261 266 276